Point Salines, Grenada

12:03 AM AST on June 27, 2017 (GMT -0400)
Point Salines International

Weather History for TGPY - December, 2012

Change the Weather History Date:

Saturday, December 8, 2012

  Actual Average Record
Temperature  
Mean Temperature 85 °F -  
Max Temperature 90 °F 83 °F 90 °F (2012)
Min Temperature 80 °F 74 °F 73 °F (2007)
Cooling Degree Days 20    
Growing Degree Days 35 (Base 50)    
Moisture  
Dew Point 77 °F    
Average Humidity 80    
Maximum Humidity 89    
Minimum Humidity 69    
Precipitation  
Precipitation 0.00 in - - ()
Sea Level Pressure  
Sea Level Pressure 29.90 in    
Wind  
Wind Speed 12 mph ()    
Max Wind Speed 21 mph    
Max Gust Speed -    
Visibility 7.8 miles    
Events Rain    
Averages and records for this station are not official NWS values.
T = Trace of Precipitation, MM = Missing Value Source: Averaged Metar Reports

Daily Weather History Graph

Daily Weather History Graph

Search for Another Location

Airport or City:

Trip Planner

Search our weather history database for the weather conditions in past years. The results will help you decide how hot, cold, wet, or windy it might be!

Date:

Astronomy

Dec. 08, 2012 Rise Set
Actual Time 6:15 AM AST 5:42 PM AST
Civil Twilight 5:53 AM AST 6:05 PM AST
Nautical Twilight 5:26 AM AST 6:31 PM AST
Astronomical Twilight 5:00 AM AST 6:58 PM AST
Moon 1:19 AM AST (12/8) 1:31 PM AST (12/8)
Length of Visible Light 12h 12m
Length of Day
11h 26m
Waning Crescent, 29% of the Moon is Illuminated
Dec 8
Waning Crescent
Dec 13
New
Dec 20
First Quarter
Dec 28
Full
Jan 4
Last Quarter

Hourly Weather History & Observations

Time (AST) Temp. Heat Index Dew Point Humidity Pressure Visibility Wind Dir Wind Speed Gust Speed Precip Events Conditions
12:00 AM 82.4 °F 90.9 °F 77.0 °F 84% 29.89 in 6.2 mi East 11.5 mph - N/A   Scattered Clouds
1:00 AM 82.4 °F 90.9 °F 77.0 °F 84% 29.86 in 6.2 mi East 13.8 mph - N/A   Partly Cloudy
2:00 AM 82 °F - 76 °F 76% 29.86 in 16 mi East 13.8 mph - -   Partly Cloudy
2:00 AM 82.4 °F 89.5 °F 75.2 °F 79% 29.86 in 6.2 mi East 13.8 mph - N/A   Partly Cloudy
3:00 AM 82.4 °F 89.5 °F 75.2 °F 79% 29.86 in 6.2 mi East 11.5 mph - N/A   Scattered Clouds
4:00 AM 82.4 °F 89.5 °F 75.2 °F 79% 29.86 in 6.2 mi East 9.2 mph - N/A   Mostly Cloudy
5:00 AM 82 °F - 77 °F 79% 29.87 in 16 mi East 11.5 mph - -   Partly Cloudy
5:00 AM 82.4 °F 90.9 °F 77.0 °F 84% 29.86 in 6.2 mi East 11.5 mph - N/A   Scattered Clouds
6:00 AM 80.6 °F 86.2 °F 75.2 °F 84% 29.89 in 6.2 mi East 9.2 mph - N/A   Scattered Clouds
7:00 AM 82.4 °F 89.5 °F 75.2 °F 79% 29.89 in 6.2 mi ESE 10.4 mph - N/A   Scattered Clouds
8:00 AM 83 °F - 76 °F 75% 29.94 in 14 mi ESE 16.1 mph - -   Mostly Cloudy
8:00 AM 82.4 °F 90.9 °F 77.0 °F 84% 29.92 in 6.2 mi ESE 16.1 mph - N/A   Mostly Cloudy
9:00 AM 84.2 °F 94.1 °F 77.0 °F 79% 29.95 in 6.2 mi ESE 11.5 mph - N/A   Scattered Clouds
10:00 AM - - - N/A% 29.98 in 6.2 mi ESE 17.3 mph - N/A   Scattered Clouds
11:00 AM 86.0 °F 96.9 °F 77.0 °F 74% 29.95 in 6.2 mi ESE 20.7 mph - N/A   Mostly Cloudy
12:00 PM 86.0 °F 96.9 °F 77.0 °F 74% 29.92 in 6.2 mi ESE 13.8 mph - N/A   Mostly Cloudy
1:00 PM 86.0 °F 96.9 °F 77.0 °F 74% 29.89 in 6.2 mi ESE 18.4 mph - N/A   Mostly Cloudy
2:00 PM 86 °F - 77 °F 69% 29.89 in 14 mi SE 18.4 mph - -   Scattered Clouds
2:00 PM 86.0 °F 96.9 °F 77.0 °F 74% 29.89 in 6.2 mi SE 18.4 mph - N/A   Scattered Clouds
3:00 PM 86.0 °F 99.3 °F 78.8 °F 79% 29.86 in 6.2 mi ESE 16.1 mph - N/A   Scattered Clouds
4:00 PM 84.2 °F 96.1 °F 78.8 °F 84% 29.86 in 6.2 mi ESE 17.3 mph - N/A   Mostly Cloudy
5:00 PM 83 °F - 76 °F 74% 29.89 in 12 mi East 16.1 mph - -   Mostly Cloudy
5:00 PM 84.2 °F 92.3 °F 75.2 °F 74% 29.89 in 6.2 mi East 16.1 mph - N/A   Mostly Cloudy
6:00 PM 82.4 °F 90.9 °F 77.0 °F 84% 29.89 in 6.2 mi East 12.7 mph - N/A   Scattered Clouds
7:00 PM 80.6 °F 87.1 °F 77.0 °F 89% 29.92 in 6.2 mi East 13.8 mph - N/A Rain Light Rain Showers
8:00 PM 82 °F - 77 °F 79% 29.95 in 11 mi East 16.1 mph - - Rain Light Rain Showers
8:00 PM 82.4 °F 90.9 °F 77.0 °F 84% 29.95 in 6.2 mi East 16.1 mph - N/A   Mostly Cloudy
9:00 PM 82.4 °F 90.9 °F 77.0 °F 84% 29.95 in 6.2 mi ESE 17.3 mph - N/A   Mostly Cloudy
10:00 PM 80.6 °F 87.1 °F 77.0 °F 89% 29.95 in 6.2 mi East 17.3 mph - N/A   Mostly Cloudy
11:00 PM 81 °F - 77 °F 83% 29.95 in 11 mi ESE 11.5 mph - -   Widespread Dust
11:00 PM 80.6 °F 87.1 °F 77.0 °F 89% 29.95 in 6.2 mi ESE 11.5 mph - N/A   Scattered Clouds